Location: Long Geng
(2.6167°N, 114.1333°E)
Time: 06:34:34
(UTC+00:00)

SJ-6F - Pass Details

Date: 14 May 2021
Orbit: 570 x 594 km, 97.8° (Epoch: 13 June)

Event Time Altitude Azimuth Distance (km) Brightness Sun altitude
Rises 20:33:25 0° 9° (N) 2,760 8.3 -24.1°
Reaches altitude 10° 20:35:33 10° 8° (N) 1,867 7.4 -23.6°
Maximum altitude 20:39:35 78° 282° (WNW) 588 4.2 -22.7°
Enters shadow 20:39:36 78° 281° (W) 588 4.2 -22.7°
